Wind_Speed
38 39 40 42 43 44 45 46 47 47 47 47 47 46 46 46 46 47 48 49 50 51 53 54 56 58 59 59 60 61 61 62 62 62 65 66 66 65 64 61 58 54 51
38 40 42 43 45 46 48 49 50 51 51 51 50 50 50 50 50 51 52 53 54 54 56 57 57 58 58 58 58 59 61 62 63 62 62 62 61 58 56 53 50 47 44
41 42 44 46 47 49 51 52 53 53 53 53 53 53 53 53 53 54 55 55 56 57 57 57 57 57 57 57 58 59 60 61 61 61 58 56 53 50 48 46 43 42 41
44 45 47 49 50 52 53 54 54 54 54 54 54 54 54 55 55 56 57 57 57 57 57 56 56 56 56 57 57 58 59 59 58 55 52 48 45 43 42 40 39 38 37
47 49 51 52 53 54 55 55 55 55 55 54 54 55 55 55 56 57 57 57 56 56 55 55 55 55 55 55 56 56 56 54 52 48 43 39 38 38 37 36 35 34 33
50 51 52 53 53 53 53 53 53 53 54 54 55 56 56 56 56 56 56 56 56 55 54 54 54 53 53 53 53 52 50 48 43 38 35 35 35 34 33 32 32 31 29
51 51 51 51 50 50 50 50 51 53 54 55 55 55 55 55 55 55 55 55 53 53 52 52 51 51 49 49 48 47 43 39 35 33 33 33 31 31 30 30 29 29 29
45 45 45 46 46 46 47 48 50 51 52 52 53 53 54 54 54 54 53 52 51 50 49 48 47 46 45 44 41 38 34 32 31 32 31 30 30 30 30 29 29 28 28
40 40 42 44 45 45 46 47 49 50 50 51 52 52 52 51 51 50 49 48 47 46 45 44 42 41 39 36 32 29 27 28 29 29 29 29 30 31 30 29 28 27 25
40 42 43 44 45 45 46 47 48 48 49 49 49 49 48 48 48 47 46 45 44 42 40 38 35 33 31 27 24 22 23 24 25 26 28 29 29 29 29 28 27 25 24
41 42 43 44 44 45 45 46 46 46 46 46 46 46 46 45 44 44 43 41 39 37 34 31 28 24 21 19 18 18 19 20 22 23 24 25 26 27 27 26 25 23 22
41 42 42 42 42 43 43 43 44 44 44 44 44 43 43 42 41 40 39 36 32 30 26 23 19 16 13 12 13 15 17 18 19 20 22 23 25 26 26 25 24 22 21
39 39 40 40 40 41 41 41 41 42 42 41 41 40 39 38 36 34 31 27 24 21 17 14 11 8 7 9 11 13 14 15 17 19 20 22 23 24 25 24 23 22 22
37 37 38 38 39 39 39 39 39 39 38 37 36 35 33 31 29 26 23 20 17 14 10 7 5 4 5 7 9 10 12 14 16 18 19 21 22 23 24 24 23 23 23
36 37 37 37 37 36 36 35 34 33 31 30 28 27 25 23 21 18 15 12 10 7 4 1 0 2 4 6 8 10 13 14 16 18 19 20 21 22 23 23 23 23 24
35 34 34 33 32 31 29 28 27 25 23 22 20 19 17 15 12 9 6 3 3 4 4 4 4 4 5 7 9 11 13 14 16 17 19 19 20 21 22 22 23 23 24
29 29 28 27 26 24 22 20 18 17 15 14 13 12 10 7 4 1 4 7 8 8 7 7 7 8 8 9 10 12 13 15 16 17 18 19 20 21 21 22 22 23 23
24 22 20 19 18 16 14 12 10 9 10 10 9 8 6 5 7 9 11 11 11 9 9 10 11 11 11 11 12 13 14 16 17 18 19 19 20 20 21 21 21 22 22
18 15 14 13 11 10 8 8 7 6 6 6 6 7 8 10 12 12 12 12 11 12 12 13 13 13 13 13 13 14 14 15 17 18 19 19 20 21 21 21 20 20 20
15 13 12 11 10 9 8 8 8 7 7 7 8 10 11 12 12 12 12 13 14 15 15 15 14 13 13 13 13 13 14 15 16 17 18 19 20 20 21 21 21 20 19
15 13 13 12 12 11 11 10 10 10 10 10 11 12 13 13 13 14 15 16 16 16 16 15 14 13 13 13 12 12 13 14 15 16 17 18 19 19 20 20 21 21 20
15 14 14 14 13 13 13 13 13 13 13 13 13 14 14 14 14 15 16 16 16 16 15 14 14 13 12 12 11 12 12 13 14 15 16 17 18 19 20 20 20 20 20
14 14 14 14 14 14 14 14 14 14 14 14 15 15 15 15 15 15 15 15 15 14 13 12 12 11 11 11 11 11 12 13 14 15 16 17 18 19 20 20 21 21 21
14 14 14 14 14 14 14 14 14 14 14 14 14 15 15 15 14 14 13 13 13 12 11 10 10 10 10 10 10 11 12 13 14 15 17 17 18 19 21 22 23 24 23
12 12 12 13 13 13 13 13 13 13 13 13 13 13 13 13 12 12 12 11 10 9 9 9 8 8 8 9 10 11 12 13 15 16 17 18 19 21 23 24 25 25 26
10 11 11 11 11 11 11 11 11 11 11 10 10 11 11 11 10 10 10 9 8 8 8 7 7 7 8 9 10 11 12 13 15 17 18 19 20 22 23 24 25 25 26
Wind_Direction
267 270 273 276 279 281 283 284 285 286 288 290 291 292 293 294 295 296 296 296 296 295 294 294 293 294 294 295 296 296 296 296 296 296 295 295 295 295 295 294 293 292 291
268 271 273 276 278 279 281 282 283 285 287 289 290 291 293 294 294 295 296 296 296 295 295 295 295 296 297 297 297 297 298 298 298 297 297 297 297 296 295 295 294 293 292
270 272 274 275 277 279 279 281 282 284 285 287 288 290 291 292 294 295 295 295 296 296 296 297 298 298 299 299 299 299 299 299 299 299 299 299 298 297 297 297 297 296 295
271 272 274 275 276 277 278 279 280 282 284 285 287 289 291 293 294 294 295 296 296 297 298 298 299 300 300 300 300 300 300 300 301 302 302 301 300 300 301 301 300 299 298
271 273 273 273 274 274 275 277 278 280 282 285 287 290 291 292 293 294 295 296 296 297 298 299 300 301 301 300 300 301 302 303 304 304 305 304 304 304 304 303 303 303 302
270 271 272 272 272 273 274 277 279 282 285 288 289 291 292 292 293 294 295 296 297 298 299 300 300 300 301 301 302 303 304 305 306 307 307 308 308 308 308 308 308 308 306
269 269 270 271 273 275 278 281 284 287 288 289 290 291 292 292 293 294 296 296 297 298 299 300 300 301 302 302 303 305 306 308 310 311 312 313 313 314 314 314 313 312 312
269 273 276 279 280 282 284 285 286 287 288 289 290 291 292 293 294 295 295 297 298 298 299 300 301 302 303 304 305 307 309 311 313 315 317 318 318 319 319 319 318 317 316
282 283 286 288 288 288 289 289 289 289 290 290 291 292 293 294 295 295 296 297 298 299 300 301 302 302 303 304 306 307 310 313 316 319 320 321 322 322 322 321 322 321 320
288 289 290 291 292 291 291 290 290 290 291 291 292 293 293 294 295 295 296 296 297 298 299 299 300 301 302 304 306 310 314 317 320 323 325 326 328 329 331 329 327 326 326
292 293 293 293 292 292 291 291 291 291 292 293 293 293 294 295 295 295 296 296 296 297 298 299 299 299 301 305 310 315 320 324 327 331 335 338 341 344 344 344 341 339 337
294 294 294 294 293 293 293 293 293 293 294 294 295 295 295 295 295 295 295 295 295 296 297 297 297 299 303 310 318 325 331 335 339 342 346 350 354 356 356 357 358 358 359
296 296 296 296 295 295 295 295 295 295 296 296 296 296 296 295 294 293 292 291 291 292 292 292 294 301 313 324 331 338 344 348 353 356 359 2 4 5 7 9 11 13 15
299 298 298 298 298 297 297 297 297 297 297 297 297 297 296 295 294 291 288 285 283 283 284 286 294 316 339 345 350 358 4 6 8 9 10 11 12 14 17 19 22 24 25
302 301 300 299 299 299 299 299 300 300 300 300 299 299 299 298 295 291 286 278 271 265 255 237 82 28 22 19 22 22 21 22 21 20 19 19 19 21 23 26 28 30 31
304 302 301 301 300 300 300 300 301 302 304 304 305 306 306 305 303 294 278 244 188 158 139 120 95 78 67 58 46 39 36 34 31 29 28 27 26 26 28 30 32 34 35
309 307 306 305 305 304 303 303 305 307 311 315 319 322 326 329 337 69 120 124 125 122 115 108 101 96 86 71 60 54 49 44 40 36 34 32 32 31 32 34 35 36 37
318 316 315 315 315 316 317 318 319 319 324 332 340 353 13 46 83 102 110 114 113 112 110 109 107 100 89 79 71 64 57 51 44 39 37 36 35 34 34 34 34 35 35
337 337 337 338 340 343 346 348 352 356 360 7 21 43 64 81 93 100 105 107 109 111 112 111 106 99 93 85 75 67 59 53 46 41 38 37 35 34 33 33 32 31 31
0 3 6 8 13 18 23 27 32 37 42 50 63 75 83 88 93 98 102 106 109 110 110 108 104 99 94 85 75 67 59 51 46 41 37 35 33 32 32 31 30 29 28
18 23 27 32 37 41 44 47 51 56 64 72 78 82 85 89 94 99 104 107 109 109 109 105 101 97 91 83 74 65 57 49 44 39 34 30 27 26 27 27 27 28 27
29 35 40 44 48 51 54 58 63 68 72 76 78 81 85 90 95 102 106 109 110 109 108 103 98 94 87 77 67 58 51 45 41 36 31 26 24 23 23 24 24 25 26
37 45 49 53 56 59 62 64 67 70 73 76 78 80 84 89 96 102 107 111 111 110 108 102 96 89 80 69 60 52 44 38 35 33 28 23 23 24 25 27 27 28 28
45 51 55 57 60 62 63 65 67 69 72 75 77 80 83 87 93 101 107 111 113 112 107 101 93 85 74 61 52 45 38 34 32 31 32 29 31 35 36 36 37 37 36
48 55 57 57 58 59 60 61 64 66 70 74 77 80 83 86 92 99 107 111 112 111 106 100 91 81 69 56 48 41 36 34 35 38 42 44 46 48 47 46 45 45 44
53 56 56 55 55 55 56 56 58 61 65 71 76 79 83 86 91 97 103 107 109 107 105 100 90 78 65 53 46 42 41 42 45 50 53 54 53 52 51 49 48 47 47
Height
5801 5800 5799 5797 5796 5794 5792 5790 5788 5786 5783 5781 5778 5775 5773 5770 5766 5763 5759 5756 5752 5747 5743 5738 5733 5727 5722 5716 5709 5703 5696 5690 5685 5680 5670 5661 5652 5645 5637 5630 5624 5618 5613
5793 5792 5790 5788 5787 5785 5782 5780 5778 5775 5772 5770 5767 5764 5760 5757 5754 5750 5746 5743 5739 5734 5729 5724 5719 5713 5707 5701 5695 5688 5682 5674 5667 5663 5654 5645 5636 5628 5621 5615 5609 5604 5599
5783 5782 5780 5778 5776 5774 5772 5769 5766 5763 5761 5757 5754 5751 5748 5745 5741 5737 5733 5729 5725 5720 5715 5710 5705 5700 5694 5687 5681 5674 5667 5659 5651 5644 5638 5629 5621 5613 5607 5602 5596 5591 5587
5773 5771 5769 5767 5765 5762 5760 5757 5754 5751 5748 5745 5742 5738 5735 5732 5728 5724 5720 5716 5711 5706 5701 5697 5691 5686 5680 5673 5666 5659 5652 5645 5637 5629 5622 5615 5608 5601 5595 5590 5586 5581 5576
5761 5759 5757 5754 5752 5749 5747 5744 5741 5738 5735 5731 5728 5725 5722 5719 5714 5710 5706 5702 5698 5693 5689 5683 5678 5673 5666 5659 5652 5645 5638 5631 5623 5616 5610 5604 5598 5592 5586 5580 5576 5571 5566
5747 5745 5743 5741 5738 5736 5733 5730 5727 5725 5722 5719 5715 5712 5708 5705 5701 5697 5693 5689 5685 5680 5676 5670 5665 5660 5654 5647 5639 5632 5625 5619 5612 5607 5601 5596 5590 5583 5578 5572 5567 5563 5558
5734 5732 5730 5727 5725 5722 5720 5717 5714 5712 5709 5705 5702 5699 5695 5691 5688 5684 5680 5676 5671 5667 5663 5658 5652 5647 5641 5635 5628 5621 5615 5609 5604 5599 5594 5588 5582 5577 5571 5566 5560 5555 5550
5720 5719 5716 5714 5712 5709 5707 5704 5702 5699 5696 5693 5689 5686 5682 5677 5674 5670 5666 5663 5659 5655 5650 5646 5640 5635 5630 5624 5618 5613 5607 5602 5597 5592 5587 5582 5576 5570 5564 5559 5554 5549 5543
5708 5706 5704 5702 5699 5697 5694 5692 5689 5686 5682 5679 5675 5672 5668 5664 5660 5657 5654 5650 5647 5643 5639 5635 5630 5625 5620 5615 5611 5607 5602 5598 5593 5587 5582 5576 5570 5564 5558 5553 5547 5542 5537
5698 5695 5693 5690 5687 5684 5682 5679 5675 5672 5669 5665 5662 5658 5655 5652 5648 5644 5641 5639 5635 5632 5628 5624 5620 5616 5612 5609 5605 5602 5598 5594 5589 5584 5578 5572 5566 5560 5553 5547 5542 5537 5532
5687 5684 5681 5678 5675 5672 5669 5666 5662 5659 5655 5652 5649 5646 5642 5639 5636 5632 5629 5627 5624 5621 5619 5616 5612 5609 5606 5604 5601 5598 5595 5591 5586 5581 5576 5570 5563 5557 5550 5544 5538 5532 5528
5676 5672 5669 5666 5663 5660 5656 5653 5649 5646 5643 5639 5636 5632 5629 5626 5624 5620 5618 5616 5614 5612 5610 5608 5606 5604 5603 5601 5598 5596 5592 5589 5584 5580 5574 5569 5562 5556 5550 5543 5537 5531 5526
5664 5661 5657 5654 5650 5647 5644 5640 5637 5634 5631 5627 5624 5621 5617 5614 5612 5610 5608 5606 5605 5604 5603 5602 5602 5601 5600 5598 5596 5594 5591 5587 5583 5579 5574 5568 5563 5557 5551 5544 5538 5533 5527
5654 5651 5647 5643 5639 5636 5632 5629 5626 5622 5619 5616 5613 5610 5607 5604 5602 5600 5599 5599 5599 5599 5599 5599 5599 5599 5598 5597 5595 5593 5590 5587 5583 5579 5574 5569 5564 5558 5553 5547 5541 5536 5531
5644 5640 5637 5633 5629 5625 5622 5619 5616 5612 5609 5607 5604 5601 5598 5596 5594 5592 5592 5592 5593 5594 5596 5597 5598 5598 5598 5597 5595 5593 5591 5587 5584 5580 5576 5571 5566 5561 5556 5550 5545 5540 5535
5635 5631 5627 5623 5620 5617 5614 5610 5607 5605 5602 5600 5597 5595 5592 5590 5588 5587 5588 5589 5591 5593 5595 5596 5598 5598 5598 5598 5596 5595 5592 5589 5586 5582 5578 5574 5569 5564 5559 5554 5549 5544 5539
5627 5623 5619 5615 5612 5609 5607 5604 5602 5600 5598 5596 5594 5591 5589 5587 5586 5586 5587 5589 5591 5594 5596 5597 5598 5599 5599 5599 5598 5596 5594 5591 5588 5585 5581 5577 5572 5568 5563 5558 5554 5549 5544
5621 5617 5613 5610 5607 5604 5602 5601 5599 5597 5596 5594 5592 5590 5589 5588 5587 5588 5589 5592 5594 5595 5597 5598 5600 5601 5601 5601 5600 5598 5597 5594 5592 5588 5585 5580 5576 5572 5567 5563 5558 5554 5549
5617 5613 5610 5607 5605 5603 5601 5599 5598 5597 5595 5594 5593 5592 5591 5590 5591 5592 5593 5595 5596 5598 5599 5601 5602 5603 5603 5603 5602 5601 5600 5598 5595 5592 5588 5584 5580 5576 5571 5567 5562 5558 5554
5618 5614 5610 5608 5605 5603 5602 5600 5599 5598 5597 5596 5595 5594 5594 5594 5595 5596 5597 5598 5600 5601 5603 5604 5605 5606 5606 5606 5606 5605 5603 5601 5598 5595 5592 5589 5584 5580 5576 5571 5567 5562 5558
5619 5616 5613 5610 5608 5606 5604 5603 5601 5600 5599 5599 5598 5598 5598 5598 5599 5600 5601 5602 5604 5605 5607 5608 5609 5610 5610 5609 5609 5608 5606 5604 5601 5599 5595 5592 5588 5584 5580 5575 5571 5567 5562
5622 5619 5616 5614 5611 5610 5608 5607 5605 5604 5604 5603 5603 5603 5603 5603 5603 5604 5605 5607 5608 5609 5611 5612 5613 5613 5613 5613 5612 5611 5609 5607 5604 5601 5599 5595 5592 5587 5583 5579 5575 5571 5566
5626 5623 5620 5618 5616 5615 5613 5612 5611 5610 5609 5608 5608 5608 5608 5608 5608 5609 5610 5611 5612 5614 5615 5615 5616 5616 5616 5616 5615 5614 5612 5610 5607 5604 5601 5598 5595 5591 5587 5583 5578 5574 5570
5630 5628 5625 5623 5622 5620 5618 5617 5616 5615 5614 5614 5613 5613 5613 5613 5613 5614 5615 5616 5617 5618 5618 5619 5620 5620 5620 5619 5618 5617 5615 5613 5610 5607 5604 5601 5598 5594 5591 5587 5583 5579 5575
5634 5632 5630 5628 5626 5625 5623 5622 5621 5620 5619 5618 5618 5618 5618 5618 5618 5618 5619 5620 5621 5621 5622 5622 5623 5623 5623 5622 5621 5619 5617 5615 5613 5610 5608 5605 5602 5599 5596 5592 5589 5585 5581
5637 5635 5634 5632 5630 5629 5627 5626 5625 5624 5623 5622 5622 5622 5622 5622 5622 5623 5623 5624 5624 5625 5625 5626 5626 5626 5625 5625 5623 5622 5620 5618 5616 5614 5612 5610 5607 5604 5601 5598 5594 5591 5587